This demonstration page uses our WeatherBlox Daily Observations layout. Learn more.

Left ArrowRight Arrow

Hourly Observations for July 18, 2016

Temp ( °F °C ) Dew Point ( °F °C ) Humidity (%) Winds ( mph kmh ) Pressure ( in mb ) Visibility ( mi km ) Precip ( " mm )
12:15 am 00:15 Clear 74 23.2 71 21.6 91 91 NE 6 9 29.97 1015 10 16 N/A
12:35 am 00:35 Clear 74 23.1 71 21.6 91 91 NE 7 11 30.00 1016 10 16 N/A
12:55 am 00:55 Clear 74 23.1 71 21.7 92 92 ENE 7 11 29.97 1015 7 11 N/A
1:15 am 01:15 Partly Cloudy 74 23.1 72 22 94 94 NE 8 13 29.97 1015 7 11 N/A
1:35 am 01:35 Mostly Cloudy with Mist and Fog 74 23.2 72 22 93 93 ENE 9 15 29.97 1015 5 8 N/A
1:55 am 01:55 Mostly Cloudy with Mist and Fog 74 23.3 72 22.1 93 93 NE 10 17 29.97 1015 5 8 N/A
2:15 am 02:15 Mostly Cloudy with Mist and Fog 74 23.2 72 22 93 93 NE 9 15 29.97 1015 5 8 N/A
2:35 am 02:35 Cloudy with Mist and Fog 74 23.2 72 22 93 93 NE 9 15 29.97 1015 5 8 N/A
2:55 am 02:55 Cloudy with Mist and Fog 74 23.3 72 22 92 92 NE 10 17 29.97 1015 5 8 N/A
3:15 am 03:15 Cloudy with Mist and Fog 74 23.2 71 21.8 92 92 NE 10 17 29.97 1015 5 8 N/A
3:35 am 03:35 Cloudy with Mist and Fog 73 23 71 21.6 92 92 NE 9 15 29.97 1015 5 8 N/A
3:55 am 03:55 Cloudy with Mist and Fog 73 23 71 21.5 91 91 NE 9 15 29.97 1015 5 8 N/A
4:15 am 04:15 Cloudy with Mist and Fog 73 23 71 21.6 92 92 NE 9 15 29.97 1015 5 8 N/A
4:35 am 04:35 Cloudy with Mist and Fog 73 23 71 21.6 92 92 NE 8 13 29.97 1015 5 8 N/A
4:55 am 04:55 Cloudy with Mist and Fog 73 23 71 21.5 91 91 NE 8 13 29.97 1015 5 8 N/A
5:15 am 05:15 Cloudy with Mist and Fog 73 23 71 21.5 91 91 NE 14 22 29.97 1015 5 8 N/A
5:35 am 05:35 Cloudy with Mist and Fog 73 22.6 71 21.5 94 94 ENE 14 22 29.97 1015 4 6 N/A
5:55 am 05:55 Cloudy with Mist and Fog 73 22.5 70 21.2 92 92 ENE 12 19 29.97 1015 5 8 N/A
6:15 am 06:15 Cloudy with Mist and Fog 73 22.5 70 21 91 91 ENE 10 17 29.97 1015 5 8 N/A
6:35 am 06:35 Cloudy with Mist and Fog 72 22.3 69 20.8 91 91 ENE 9 15 29.97 1015 4 6 N/A
6:55 am 06:55 Cloudy with Mist and Fog 72 22.2 70 21 93 93 ENE 8 13 30.00 1016 3 4 N/A
7:15 am 07:15 Cloudy with Mist and Fog 72 22.1 70 21 94 94 ENE 10 17 30.00 1016 2 3 N/A
7:35 am 07:35 Cloudy with Mist and Fog 71 21.9 69 20.7 93 93 ENE 9 15 30.00 1016 2 3 N/A
7:55 am 07:55 Cloudy with Mist and Fog 71 21.9 69 20.8 94 94 ENE 10 17 30.00 1016 1 2 N/A
8:15 am 08:15 Cloudy with Mist and Fog 72 22 70 21 94 94 E 8 13 30.00 1016 1 1 N/A
8:35 am 08:35 Cloudy with Mist and Fog 72 22.2 70 21.2 94 94 E 12 19 30.00 1016 1 1 N/A
8:55 am 08:55 Cloudy with Mist and Fog 72 22.3 70 21.3 94 94 ENE 12 19 30.00 1016 1 2 N/A
9:15 am 09:15 Cloudy with Mist and Fog 72 22.4 70 21.3 94 94 ENE 9 15 30.00 1016 2 3 N/A
9:35 am 09:35 Cloudy with Mist and Fog 73 22.6 70 21.2 92 92 ENE 7 11 30.00 1016 3 5 N/A
9:55 am 09:55 Cloudy with Mist and Fog 74 23.1 70 21.2 89 89 ENE 9 15 30.00 1016 4 6 N/A
10:15 am 10:15 Cloudy with Mist and Fog 74 23.5 70 21.1 86 86 ENE 9 15 30.00 1016 5 8 N/A
10:35 am 10:35 Cloudy with Haze 75 24 70 21.1 84 84 ENE 9 15 30.03 1017 5 8 N/A
10:55 am 10:55 Cloudy with Haze 75 24 70 21 83 83 ENE 6 9 30.03 1017 5 8 N/A
11:15 am 11:15 Cloudy 76 24.4 70 21.1 82 82 ENE 6 9 30.06 1018 7 11 N/A
11:35 am 11:35 Cloudy 77 25.1 70 21 78 78 ENE 7 11 30.03 1017 7 11 N/A
11:55 am 11:55 Cloudy 78 25.8 70 21.1 75 75 ENE 8 13 30.00 1016 10 16 N/A
12:15 pm 12:15 Cloudy 80 26.5 69 20.8 71 71 E 8 13 30.03 1017 10 16 N/A
12:35 pm 12:35 Cloudy with Haze 80 26.7 70 21 71 71 E 9 15 30.00 1016 5 8 N/A
12:55 pm 12:55 Mostly Cloudy 82 27.9 70 21.2 67 67 E 9 15 30.00 1016 10 16 N/A
1:15 pm 13:15 Mostly Cloudy 82 27.7 70 21.1 67 67 ESE 6 9 30.00 1016 10 16 N/A
1:35 pm 13:35 Mostly Cloudy 83 28.3 71 21.4 66 66 E 6 9 29.97 1015 10 16 N/A
1:55 pm 13:55 Mostly Cloudy 85 29.3 71 21.7 64 64 ENE 8 13 29.97 1015 10 16 N/A
2:15 pm 14:15 Partly Cloudy 86 30.1 71 21.4 60 60 E 9 15 29.97 1015 10 16 N/A
2:35 pm 14:35 Partly Cloudy 87 30.4 70 21.3 58 58 E 9 15 29.97 1015 10 16 N/A
2:55 pm 14:55 Mostly Cloudy 88 30.9 70 21.3 57 57 ESE 13 20 29.94 1014 10 16 N/A
3:15 pm 15:15 Mostly Cloudy 87 30.6 70 20.9 56 56 E 9 15 29.94 1014 10 16 N/A
3:35 pm 15:35 Mostly Cloudy 88 31.3 70 21 54 54 SE 12 19 29.94 1014 10 16 N/A
3:55 pm 15:55 Partly Cloudy 88 31.1 70 21.2 56 56 E 15 24 29.94 1014 10 16 N/A
4:15 pm 16:15 Partly Cloudy 88 31.2 70 21.3 56 56 SE 13 20 29.94 1014 10 16 N/A
4:35 pm 16:35 Partly Cloudy 87 30.8 70 20.9 56 56 ESE 15 24 29.94 1014 10 16 N/A
4:55 pm 16:55 Hazy 87 30.8 70 20.9 56 56 SE 12 19 29.94 1014 4 6 N/A
5:15 pm 17:15 Hazy 87 30.8 71 21.4 57 57 ESE 14 22 29.94 1014 5 8 N/A
5:35 pm 17:35 Partly Cloudy 88 30.9 71 21.4 57 57 ESE 14 22 29.94 1014 10 16 N/A
5:55 pm 17:55 Partly Cloudy 88 31 71 21.4 57 57 ESE 15 24 29.91 1013 10 16 N/A
6:15 pm 18:15 Sunny 88 31 70 21.3 56 56 SE 15 24 29.91 1013 10 16 N/A
6:35 pm 18:35 Sunny 88 31 71 21.4 57 57 SE 14 22 29.91 1013 10 16 N/A
6:55 pm 18:55 Sunny 87 30.8 71 21.6 58 58 ESE 15 24 29.91 1013 10 16 N/A
7:15 pm 19:15 Sunny 87 30.7 71 21.7 59 59 SE 13 20 29.91 1013 10 16 N/A
7:35 pm 19:35 Sunny 87 30.6 71 21.5 58 58 SE 13 20 29.91 1013 10 16 N/A
7:55 pm 19:55 Sunny 86 30.2 71 21.6 60 60 SE 8 13 29.91 1013 10 16 N/A
8:15 pm 20:15 Sunny 85 29.6 71 21.5 62 62 ESE 8 13 29.91 1013 10 16 N/A
8:35 pm 20:35 Sunny 85 29.2 71 21.4 63 63 ESE 9 15 29.91 1013 10 16 N/A
8:55 pm 20:55 Sunny 83 28.3 71 21.5 67 67 ESE 8 13 29.91 1013 10 16 N/A
9:15 pm 21:15 Clear 81 27.4 71 21.5 70 70 E 7 11 29.94 1014 10 16 N/A
9:35 pm 21:35 Clear 77 25.2 71 21.9 82 82 E 6 9 29.94 1014 10 16 N/A
9:55 pm 21:55 Clear 77 25.1 71 21.7 81 81 E 7 11 29.94 1014 10 16 N/A
10:15 pm 22:15 Clear 77 24.8 71 21.6 82 82 E 8 13 29.94 1014 10 16 N/A
10:35 pm 22:35 Clear 78 25.4 71 21.6 80 80 E 7 11 29.94 1014 10 16 N/A
10:55 pm 22:55 Clear 76 24.5 71 21.7 84 84 E 7 11 29.97 1015 10 16 N/A
11:15 pm 23:15 Clear 77 25.2 72 22.3 84 84 E 9 15 29.94 1014 10 16 N/A
11:35 pm 23:35 Clear 78 25.7 72 22.2 81 81 ESE 9 15 29.97 1015 10 16 N/A
11:55 pm 23:55 Partly Cloudy 78 25.6 72 22.2 82 82 ESE 9 15 29.97 1015 10 16 N/A

Powered by AerisWeather